Find Starlink 32013

NORAD ID: 60103 Int'l Des: 2024-117 Owner: SPXS Country: US Constellation: starlink operational
LEOCIRCULAR

Live Position

Loading 3D Globe...

About Starlink 32013

Description loading...

Upcoming Passes

Passes for default location (London). Set your location on the main map for personalized predictions.

Altitude History

Loading altitude history...

Two-Line Element Set

1 60103U 24117N 26126.29353203 -.00000942 00000-0 -19685-4 0 9999
2 60103 53.1590 129.7134 0001316 54.5759 305.5365 15.30181691105703
Epoch: May 6, 2026 • Age: 24 hours

Current Status

Altitude 478.3 km
Velocity 7.63 km/s
Sub-Earth Point 38.92°N, 63.83°W
Launch Date Jun 23, 2024
Age 1.8 years
Type internet

Technical Details

Classification Payload
Mass 730.00 kg
Dry Mass 700.00 kg
Total Mass 730.00 kg
Length 0.30 m
Diameter 4.10 m
Span 29.00 m
Shape Box + pan
Manufacturer SPXS
Bus Type Starlink V2M
Phase Status In Orbit
Owner/State SPXS/US

Most Searched